Location: Fischingen
(47.4142°N, 8.9686°E)
Time: 12:58:56
(UTC+00:00)

Daily predictions for brighter satellites

Satellite Brightness Start Highest point End
(mag) Time Altitude Azimuth Time Altitude Azimuth Time Altitude Azimuth
SL-24 R/B 4.4 16:45:04 10° SSE 16:49:36 86° ENE 16:54:40 10° NNW
Cosmos 1626 Rocket 4.0 16:46:03 10° SSE 16:50:13 43° E 16:54:26 10° NNE
Cosmos 1092 Rocket 4.4 16:45:24 10° SSE 16:51:04 40° E 16:56:43 10° NNE
Cosmos 2263 Rocket 4.1 16:47:46 10° W 16:52:13 23° NW 16:56:41 10° N
Cosmos 1898 Rocket 3.9 16:48:25 10° S 16:53:25 45° ESE 16:58:23 10° NNE
Cosmos 923 Rocket 4.2 16:48:16 10° NNW 16:53:38 85° WSW 16:58:55 10° SSE
CZ-4C R/B 3.2 16:52:51 10° N 16:56:00 66° WNW 16:59:12 10° SSW
TELKOM 3 3.4 16:54:14 10° WNW 16:56:16 39° N 16:58:26 10° ENE
Cosmos 1680 Rocket 3.5 16:52:39 10° NNW 16:57:56 81° ENE 17:03:08 10° SSE
Nadezhda 4 Rocket 4.0 16:53:32 10° S 16:59:43 74° E 17:05:53 10° NNE
Meteor 2-10 Rocket 4.2 16:55:21 10° NNW 17:00:40 61° W 17:05:44 10° S
Cosmos 1328 4.5 16:58:53 10° SSE 17:02:29 34° E 17:06:05 10° NNE
CZ-4B R/B 2.1 17:01:33 10° NNE 17:04:33 31° E 17:07:27 10° SSE
CZ-2D R/B 3.7 17:02:04 10° SE 17:05:39 38° ENE 17:09:14 10° N
Landsat 5 3.9 17:01:55 10° N 17:05:43 58° WNW 17:09:27 10° SSW
MOS 1 Rocket 3.9 17:02:25 10° NNE 17:06:14 30° E 17:10:05 10° SSE
Cosmos-2242 3.9 17:05:40 10° NNE 17:09:24 28° ENE 17:13:07 10° SE
NOAA 11 4.5 17:04:14 10° S 17:09:43 76° WSW 17:15:15 10° NNW
NOSS 3-1 (C) 4.2 17:04:33 10° NW 17:12:02 88° SW 17:20:45 10° SE
COSMO-SKYMED 1 2.9 17:09:30 10° NNE 17:13:40 44° E 17:17:50 10° S
BREEZE-M DEB (TANK) 1.9 17:13:13 10° WNW 17:15:28 53° N 17:17:14 15° E
Cosmos 1937 Rocket 3.7 17:10:55 10° S 17:16:03 52° ESE 17:21:13 10° NNE
Cosmos 1758 Rocket 4.2 17:12:56 10° SSE 17:16:56 34° E 17:21:01 10° NNE
Aureole 3 3.2 17:14:10 10° NNW 17:17:13 61° W 17:20:09 10° S
Okean 1-7 Rocket 4.5 17:13:30 10° SSW 17:17:58 55° WNW 17:22:29 10° N
USA 290 2.7 17:18:29 10° N 17:21:30 37° ENE 17:24:29 10° SE
NOSS 2-1 (C) 3.1 17:20:44 10° SW 17:24:03 71° NW 17:27:19 12° NE
Cosmos 1833 Rocket 2.7 17:19:51 10° NNW 17:25:25 60° ENE 17:30:58 10° SE
CZ-4 R/B 4.5 17:21:33 10° SSE 17:25:37 58° ENE 17:29:43 10° N
H-2A R/B 2.4 17:23:23 10° SE 17:28:07 41° ENE 17:33:00 10° N
Meteor 1-21 Rocket 4.4 17:24:02 10° SSW 17:29:34 77° WNW 17:35:12 10° N
NOSS 2-1 (D) 3.3 17:26:43 10° SW 17:30:00 61° NW 17:33:06 12° NNE
Cosmos 1939 Rocket 3.1 17:26:17 10° S 17:30:22 73° WSW 17:34:24 10° NNW
Helios 1A Rocket 3.7 17:27:04 10° SE 17:30:42 30° ENE 17:34:21 10° N
H-2A R/B 2.9 17:26:35 10° N 17:30:52 52° WNW 17:35:02 10° SSW
Cosmos 2344 4.3 17:22:45 10° NW 17:31:55 77° NE 17:44:46 10° SE
USA 229 DEB 4.0 17:26:11 10° NW 17:33:31 87° SW 17:41:14 10° SE
USA 229 4.0 17:26:17 10° NW 17:33:37 88° SW 17:41:21 10° SE
Cosmos 1602 Rocket 3.5 17:29:20 10° S 17:33:41 88° ESE 17:38:08 10° N
Cosmos 44 4.0 17:29:20 10° SW 17:34:06 54° NW 17:39:12 10° NNE
SeaSat 1 4.3 17:30:08 10° N 17:34:14 27° NW 17:38:17 10° WSW
CZ-3B R/B 2.0 17:32:10 10° WNW 17:34:47 85° NNE 17:42:32 10° ESE
Cosmos 2026 Rocket 4.0 17:28:51 10° S 17:34:55 66° E 17:41:08 10° NNE
CSL-04 DEB 4.4 17:31:26 10° NNE 17:35:35 85° WNW 17:39:34 10° SSW
Feng Yun 1-1 Rocket 4.3 17:30:09 10° SSE 17:35:39 88° WSW 17:41:20 10° NNW
SJ 16-02 3.2 17:33:14 10° WSW 17:37:07 30° WNW 17:41:01 10° N
SKYMED 3 4.5 17:33:25 10° NNE 17:37:47 78° ESE 17:42:07 10° S
YAOGAN 1 2.7 17:35:30 10° SE 17:39:40 49° ENE 17:43:51 10° N
Cosmos 990 Rocket 4.4 17:35:18 10° SSW 17:40:28 64° WNW 17:45:38 10° NNE
Cosmos 1689 Rocket 2.8 17:41:34 29° E 17:41:34 29° E 17:44:04 10° SSE
Cosmos 1553 Rocket 4.1 17:35:55 10° N 17:42:11 53° ENE 17:48:19 10° SSE
Cosmos 1844 Rocket 4.1 17:37:20 10° WSW 17:42:30 35° NW 17:47:39 10° NNE
Aureole 3 Rocket 2.4 17:39:41 10° N 17:42:57 81° E 17:47:00 10° S
COSMOS 2406 3.2 17:38:59 10° NNW 17:44:49 89° SW 17:50:34 10° SSE
Cosmos 2082 Rocket 2.4 17:39:39 10° NNW 17:45:13 49° NE 17:50:43 10° SE
HJ-1C 4.1 17:47:04 31° E 17:47:21 31° ENE 17:50:21 10° N
Cosmos 1703 4.1 17:43:59 10° SSW 17:47:46 52° WNW 17:51:35 10° N
Cosmos 1825 Rocket 3.7 17:44:29 10° S 17:48:44 52° E 17:53:04 10° NNE
Meteor 1-27 4.2 17:43:31 10° N 17:49:01 55° ENE 17:54:28 10° SSE
IRS-1C Rocket 4.1 17:43:54 10° SSE 17:49:10 90° W 17:54:28 10° NNW
NOSS 3-1 (A) 4.2 17:41:40 10° NW 17:49:11 84° SW 17:57:54 10° SSE
X-37B 1.7 17:46:56 10° W 17:49:56 39° SSW 17:51:36 21° SE
deb Kosmos-1763 4.4 17:48:32 10° N 17:51:57 39° ENE 17:52:52 33° E
Cosmos 1812 Rocket 4.2 17:47:51 10° NNW 17:52:11 58° W 17:56:26 10° S
ISS -2.9 17:49:42 10° WNW 17:52:55 38° N 17:53:50 31° NE
Okean O Rocket 4.0 17:51:34 10° SSW 17:55:18 26° W 17:59:02 10° NW
ATLAS 2AS CENTAUR R/B 4.4 17:50:18 10° NW 17:56:19 23° N 18:00:55 14° NE
NOAA 15 4.5 17:51:27 10° SSE 17:56:42 76° ENE 18:02:00 10° NNW
ATLAS 5 CENTAUR R/B 4.1 17:56:10 10° NNW 17:58:26 13° N 18:00:51 10° NNE
CZ-4 R/B 1.3 17:55:18 10° SSE 17:59:20 90° ENE 18:03:19 10° NNW
Iridium 4 Rocket 3.6 17:55:01 10° N 18:00:27 81° W 18:05:21 10° S
SKYMED 2 4.1 17:57:30 10° N 18:01:48 60° WNW 18:06:04 10° SSW
ERS-2 1.9 17:58:38 13° NNE 18:01:50 80° ESE 18:05:27 10° SSW
CSL-04 Rocket 3.7 17:58:23 10° SE 18:03:42 56° ENE 18:09:06 10° N
Okean-O 2.6 18:02:22 10° SSE 18:06:49 87° W 18:11:17 10° NNW
S3M 3.9 18:02:39 10° N 18:08:41 57° ENE 18:14:42 10° SSE
CZ-4C R/B 4.2 18:04:21 10° NW 18:08:56 20° N 18:11:46 16° NE
USA 234 4.0 18:05:52 23° NE 18:09:22 39° N 18:15:19 10° WNW
Ariane Rocket 4.4 18:11:24 20° NNE 18:11:24 20° NNE 18:13:47 10° N
Cosmos 1340 4.3 18:07:58 10° SW 18:11:24 34° WNW 18:14:52 10° N
Cosmos 1346 Rocket 2.7 18:07:51 10° S 18:11:47 87° W 18:15:11 14° N
Cosmos 1655 Rocket 4.1 18:06:09 10° SSE 18:12:06 50° E 18:18:04 10° NNE
Cosmos 2278 Rocket 2.2 18:06:42 10° SSW 18:12:23 89° WNW 18:17:11 15° NNE
Cosmos 1953 Rocket 3.4 18:10:55 10° S 18:15:12 65° E 18:17:57 22° NNE
CZ-2C R/B 4.1 18:10:07 10° S 18:15:28 52° W 18:21:04 10° NNW
SWARM C 4.4 18:14:31 10° S 18:17:50 86° E 18:18:11 70° NNE
SWARM A 4.1 18:14:38 10° S 18:17:56 88° W 18:18:52 45° N
SAR-Lupe-4 3.6 18:17:50 26° N 18:19:47 77° WNW 18:23:20 10° SSW
Cosmos 2292 Rocket 3.4 18:15:16 10° S 18:20:02 62° E 18:20:41 53° NE
Cosmos 44 Rocket 3.5 18:17:51 10° SSW 18:22:37 52° ESE 18:23:19 48° E
DMSP B5D1-3 4.4 18:23:24 10° NNE 18:28:32 85° ESE 18:33:38 10° SSW
ARGOS 3.1 18:23:30 10° SSE 18:28:52 87° WSW 18:34:18 10° NNW
Meteor 2-2 Rocket 4.3 18:24:20 10° N 18:30:14 59° ENE 18:34:20 20° SSE
Cosmos 1869 3.3 18:26:48 10° N 18:30:11 64° N 18:30:11 64° N
NOSS 2-2 (D) 4.5 18:26:54 10° NNW 18:32:02 54° NE 18:33:29 45° E
Cosmos 372 Rocket 4.3 18:30:51 10° SSW 18:36:02 65° WNW 18:39:58 18° NNE
CZ-4B R/B 4.2 18:34:19 10° NNW 18:36:30 17° WNW 18:38:39 10° WSW
Cosmos 468 4.4 18:32:50 10° NNW 18:38:08 88° WSW 18:41:13 26° SSE
CZ-2C R/B 2.6 18:33:45 16° NNE 18:38:13 66° ESE 18:43:48 10° S
Cosmos 494 Rocket 3.8 18:36:56 10° NNW 18:42:07 71° ENE 18:42:29 68° E
Cosmos 2150 Rocket 3.8 18:40:02 10° SSW 18:45:11 81° ESE 18:45:59 64° NE
Cosmos 1048 Rocket 4.0 18:41:57 10° NNW 18:47:06 76° WSW 18:49:36 31° S
Cosmos 2297 4.3 18:47:28 10° S 18:51:23 41° SSE 18:51:23 41° SSE
Cosmos 909 Rocket 4.5 18:54:04 10° NNW 19:00:09 49° NE 19:00:09 49° NE
SL-08 RB Rocket 4.1 18:59:19 40° SSW 19:00:40 58° W 19:05:06 10° NNW
H-2A R/B 3.9 19:03:16 10° SSW 19:07:39 29° W 19:12:11 10° NNW
Cosmos 1125 Rocket 3.9 19:04:38 10° SSW 19:08:41 55° SSW 19:08:41 55° SSW
Cosmos 2266 Rocket 4.1 19:08:07 10° SSW 19:14:19 72° W 19:20:28 10° N
NOSS 2-2 (C) 4.4 19:14:42 10° NW 19:20:07 84° WSW 19:20:07 84° WSW
Cosmos 1943 Rocket 4.5 19:22:53 10° SSW 19:23:18 12° SSW 19:23:18 12° SSW
Cosmos 2082 Rocket 3.9 19:24:09 10° NW 19:29:04 30° WSW 19:33:42 11° SSW
ISS -0.3 19:26:38 10° WNW 19:26:49 11° WNW 19:26:49 11° WNW
ATLAS 5 CENTAUR R/B 4.4 19:41:40 10° NNW 19:42:29 13° NNW 19:42:29 13° NNW
ATLAS 2AS CENTAUR R/B 4.1 19:43:06 10° NW 19:48:21 29° N 19:48:21 29° N
USA 234 3.9 19:53:13 46° NNW 19:53:13 46° NNW 19:58:03 10° NW
Cosmos 2278 Rocket 4.4 19:53:10 10° W 19:57:19 20° NW 19:59:05 18° NNW
CZ-4C R/B 4.1 19:53:15 10° NNW 19:56:58 29° N 19:56:58 29° N
